Flag for India Weather past 2 weeks in Thiruvananthapuram, Kerala, India

Now
88 °F

Scattered clouds.


Feels Like: 100 °F
Forecast: 78 / 84 °F
Wind: 9 mph from Northwest

Location: Thiruvananthapuram

Current Time: Jul 25, 2014 at 12:18:02 PM

Latest Report: Jul 25, 2014 at 10:40 AM


Visibility: 3 mi

Pressure: 29.86 "Hg

Humidity: 70%

Dew point: 77 °F

Location of ThiruvananthapuramLocation

Historic Weather in Thiruvananthapuram — Graph

°F

Thiruvananthapuram temperature yesterday

Maximum temperature yesterday: 90 °F (at 1:40 PM)
Minimum temperature yesterday: 77 °F (at 12:40 AM)
Average temperature yesterday: 82 °F

Past Weeks' High & Low Weather Summary

 TemperatureHumidityPressure
High90 °F (Jul 24, 1:40 PM)100% (Jul 16, 3:40 AM)29.89 "Hg (Jul 16, 3:40 AM)
Low75 °F (Jul 16, 3:40 AM)66% (Jul 16, 3:40 PM)29.71 "Hg (Jul 15, 3:40 PM)
Average81 °F82%29.80 "Hg
* Reported Jul 10 10:40 AM — Jul 25 10:40 AM, Thiruvananthapuram, Weather by CustomWeather, © 2014

Note: Actual official high and low records may vary slightly from our data, if they occured in-between our weather recording intervals... More about our weather records

Advertising

Thiruvananthapuram weather history for previous 24 hours

 ConditionsComfort  
Time TempWeatherWind HumidityBarometerVisibility
10:40 AM
Jul 25
88 °FScattered clouds.9 mph70%29.86 "Hg3 mi
9:40 AM86 °FHaze.8 mph75%29.86 "Hg3 mi
8:40 AM82 °FScattered clouds.8 mph79%29.86 "Hg2 mi
7:40 AM81 °FScattered clouds.7 mph84%29.86 "Hg2 mi
6:40 AM79 °FPassing clouds.5 mph84%29.83 "Hg2 mi
5:40 AM77 °FPartly cloudy.3 mph89%29.83 "Hg2 mi
4:40 AM77 °FPartly cloudy.No wind89%29.80 "Hg2 mi
3:40 AM77 °FPartly cloudy.No wind89%29.80 "Hg2 mi
2:40 AM77 °FPassing clouds.No wind94%29.83 "Hg2 mi
1:40 AM79 °FPassing clouds.6 mph84%29.83 "Hg2 mi
12:40 AM79 °FLight rain. Overcast.7 mph84%29.86 "Hg2 mi
10:40 PM
Jul 24
81 °FPassing clouds.6 mph84%29.86 "Hg2 mi
9:40 PM81 °FHaze.5 mph84%29.86 "Hg2 mi
8:40 PM81 °FHaze.7 mph84%29.86 "Hg2 mi
7:40 PM82 °FPassing clouds.6 mph79%29.80 "Hg2 mi
6:40 PM84 °FScattered clouds.8 mph74%29.77 "Hg2 mi
5:40 PM86 °FHaze.8 mph70%29.77 "Hg3 mi
3:40 PM88 °FPassing clouds.12 mph66%29.77 "Hg4 mi
2:40 PM90 °FPassing clouds.14 mph67%29.77 "Hg4 mi
1:40 PM90 °FHaze.9 mph67%29.77 "Hg3 mi
12:40 PM88 °FScattered clouds.12 mph70%29.80 "Hg3 mi
Weather by CustomWeather, © 2014

See weather overviewHow to use our weather pages